GFSNIL_sfc_thetae_000.txt.gz
Theta_e
295 295 295 295 293 291 289 289 292 292 293 293 294 295 295 294 295 295 294 293 293 291
294 295 294 293 290 289 289 292 292 293 293 294 296 296 296 294 293 293 292 291 292 291
293 294 293 290 289 289 290 292 292 293 292 293 292 293 294 293 293 292 292 291 290 290
292 292 290 288 288 289 291 291 290 291 291 291 292 292 291 291 290 289 289 289 288 286
289 287 286 287 288 289 289 290 290 290 291 291 289 289 289 288 287 286 285 285 285 285
285 285 285 286 288 289 290 290 290 290 290 290 289 288 286 285 285 284 284 283 283 283
286 285 286 289 290 290 291 291 291 291 289 288 286 285 285 284 282 281 282 282 281 281
291 292 290 290 291 291 291 292 292 290 286 285 284 284 283 282 281 281 280 281 281 281
294 293 292 292 291 291 291 290 290 285 282 282 283 286 285 285 281 281 280 279 280 280
289 290 290 290 290 287 284 283 281 281 281 281 282 285 285 285 281 280 280 279 279 280
287 285 284 283 282 282 281 280 279 280 281 280 280 283 283 283 279 278 278 278 279 279
284 282 282 281 279 279 279 279 279 280 279 278 278 281 281 281 276 276 276 278 279 279
282 281 279 278 278 278 278 279 279 278 278 278 275 279 281 280 277 275 277 277 279 280
281 280 278 278 277 277 277 277 272 271 273 275 276 276 280 280 279 278 277 278 278 279

GFSNIL_sfc_thetae_003.txt.gz
Theta_e
305 303 301 301 301 299 298 299 300 300 301 302 302 301 301 302 300 298 297 294 293 293
302 301 300 300 298 297 298 299 299 300 300 300 300 299 299 298 297 296 295 294 294 293
300 299 298 296 296 296 298 298 298 297 296 296 296 296 295 295 296 295 295 295 294 294
298 295 294 295 295 296 297 296 295 295 295 295 294 293 293 293 293 292 292 293 292 291
295 293 293 294 295 296 296 295 295 294 294 293 293 294 292 291 290 289 289 289 289 289
294 293 293 295 296 297 296 296 295 295 294 293 291 291 290 289 289 289 288 288 287 287
294 294 294 295 296 296 295 294 293 294 294 292 290 288 288 288 287 286 286 286 286 285
295 295 293 292 292 294 294 294 294 293 291 288 287 286 288 286 286 285 285 285 285 285
291 292 292 292 292 291 290 288 287 287 286 286 286 287 285 286 286 285 284 283 284 284
292 290 288 288 287 287 286 286 285 285 285 285 286 284 284 284 284 283 283 282 282 282
289 287 287 287 286 285 285 284 284 284 284 283 283 282 282 282 283 282 282 282 282 282
287 286 285 284 284 284 283 283 283 283 282 282 282 281 281 281 282 281 281 281 282 282
286 285 284 284 283 283 283 282 282 281 281 281 281 280 280 281 281 280 280 281 282 282
285 284 284 283 283 282 282 281 281 280 280 280 280 280 279 280 280 279 279 280 281 283

GFSNIL_sfc_thetae_006.txt.gz
Theta_e
309 309 306 305 304 302 303 304 305 305 305 305 305 305 305 302 300 300 300 299 297 296
309 306 304 303 303 302 303 303 303 304 303 301 301 301 300 298 296 297 296 298 297 297
305 304 302 302 301 302 302 303 301 300 299 299 299 299 298 297 295 295 295 294 293 294
303 301 301 301 300 301 301 300 299 298 298 298 296 295 295 294 295 294 293 293 293 292
301 301 300 300 300 299 299 299 299 298 296 296 296 295 293 293 294 293 292 292 292 291
300 300 299 298 298 298 297 296 296 296 295 295 294 294 294 292 292 292 292 291 290 290
299 298 298 296 297 296 296 295 295 294 293 293 292 291 291 290 290 290 289 290 289 289
296 296 296 295 294 294 293 292 291 291 291 290 290 289 289 289 289 289 289 289 288 288
295 295 293 293 292 291 291 290 290 289 289 289 288 286 285 286 287 287 287 287 287 287
295 292 291 291 290 289 289 290 289 289 288 288 288 283 283 283 285 285 285 286 286 285
292 290 290 289 289 289 289 288 288 288 287 287 286 283 282 281 284 285 285 285 285 285
291 290 288 288 288 289 288 288 287 287 286 285 285 283 281 281 283 283 283 284 284 283
291 289 288 288 288 289 288 287 286 285 286 284 284 282 281 281 282 280 281 282 282 283
291 288 289 289 289 288 287 286 284 284 284 284 283 282 281 280 280 280 279 280 282 284

GFSNIL_sfc_thetae_009.txt.gz
Theta_e
311 310 308 306 304 302 303 304 305 305 306 305 304 304 303 301 301 299 300 297 296 297
309 307 305 304 303 302 303 303 304 304 303 303 301 300 300 298 297 298 298 297 297 297
306 305 304 303 302 302 302 302 302 301 300 300 298 298 297 297 298 297 296 296 295 294
304 303 302 302 302 301 300 300 299 299 298 298 297 297 297 296 296 295 295 295 295 294
303 302 301 301 299 300 299 300 299 298 297 297 296 296 295 294 294 293 292 293 293 292
301 300 300 299 298 298 297 297 296 296 295 294 294 293 292 292 292 292 291 291 291 290
299 298 297 297 296 295 295 294 293 292 292 292 291 291 291 291 290 290 290 290 290 289
298 298 296 295 295 294 293 292 292 291 291 291 290 289 289 289 288 287 288 289 289 290
297 296 295 294 293 292 291 291 291 290 290 290 289 285 284 284 285 285 285 285 287 288
296 295 293 292 291 290 290 291 290 289 289 288 289 284 284 283 284 284 284 285 286 286
295 294 292 291 290 290 290 290 289 289 288 288 287 285 283 282 283 283 284 284 285 285
294 292 291 290 290 290 289 289 288 288 287 286 286 285 283 282 282 282 282 283 283 284
293 292 290 290 289 290 289 288 288 287 286 285 285 285 283 282 282 280 281 282 282 283
294 292 291 290 290 289 289 288 287 286 286 285 285 284 283 281 281 280 280 281 282 284

GFSNIL_sfc_thetae_012.txt.gz
Theta_e
309 306 305 303 301 300 300 300 302 302 302 301 300 299 299 298 297 296 297 294 296 294
306 305 303 302 301 300 301 300 299 300 299 299 298 298 297 295 295 296 295 294 294 293
304 304 302 301 300 299 299 299 298 298 298 298 297 297 296 295 295 294 294 294 294 293
303 302 302 300 299 298 298 298 298 297 296 296 295 295 294 294 294 293 292 292 293 292
302 300 299 298 297 297 296 297 296 295 294 294 293 293 292 292 292 291 291 290 290 290
299 298 297 296 296 296 295 295 293 292 291 290 290 289 289 288 288 287 287 287 287 287
298 297 296 296 295 294 294 292 291 291 291 290 289 289 288 288 286 286 285 285 285 285
298 297 296 295 294 293 292 291 291 290 289 289 289 287 285 285 284 283 283 283 284 285
298 296 295 295 294 292 291 290 289 288 288 287 288 285 285 283 281 282 282 281 282 283
296 295 295 294 292 290 289 289 288 288 287 286 286 286 285 284 281 281 280 280 281 282
295 295 294 292 291 289 288 288 287 287 286 285 285 287 286 284 280 280 280 280 280 280
294 293 293 291 289 288 287 287 286 287 285 284 283 286 286 283 280 280 279 280 280 281
294 293 291 290 289 288 287 287 286 285 284 285 282 286 285 282 279 277 278 279 280 282
292 292 291 290 288 287 286 285 284 283 283 283 284 283 283 282 279 278 277 277 278 280

GFSNIL_sfc_thetae_018.txt.gz
Theta_e
299 300 300 299 297 296 294 293 293 294 295 295 294 294 293 292 292 293 291 290 290 291
300 300 299 297 295 294 293 295 293 293 293 293 292 293 292 290 290 289 289 290 291 291
298 298 295 294 293 293 292 293 292 292 291 291 290 290 289 288 289 288 287 287 286 285
295 296 295 293 293 292 292 293 293 292 289 288 287 287 285 285 286 284 284 283 283 283
295 293 293 293 293 293 293 294 293 291 289 288 287 286 285 284 284 283 282 282 282 282
294 293 292 292 292 293 292 291 291 287 288 287 287 285 284 283 283 281 281 281 281 281
294 294 292 290 293 294 292 292 291 289 288 287 286 285 283 283 281 280 281 281 281 280
293 293 293 293 292 293 293 292 288 287 286 285 284 284 282 282 281 280 280 280 280 280
294 293 293 292 292 291 292 288 287 286 285 283 285 286 285 284 280 280 279 278 279 279
292 292 291 292 292 291 289 286 285 284 284 282 283 286 287 286 282 280 278 278 278 278
290 290 290 290 290 289 286 286 284 283 282 281 282 285 284 284 279 278 278 278 278 278
290 289 289 287 286 287 285 282 282 282 281 280 280 283 283 281 276 277 277 278 278 278
290 289 288 287 286 285 282 283 282 281 280 281 278 281 281 280 275 272 275 276 277 278
288 287 288 287 286 281 282 281 278 278 278 278 278 277 279 279 276 275 275 275 275 277

GFSNIL_sfc_thetae_021.txt.gz
Theta_e
298 297 297 296 295 294 293 292 292 293 293 293 293 292 292 291 290 290 288 286 287 287
298 297 296 295 293 293 292 293 292 292 293 294 293 292 292 289 287 287 287 286 285 284
296 297 296 294 293 292 292 292 292 293 292 291 290 289 287 286 286 287 284 284 282 282
294 294 294 293 292 291 291 294 294 294 292 289 287 286 285 285 285 284 282 282 281 281
293 293 292 292 291 291 291 291 290 290 290 288 287 287 284 284 284 282 281 281 281 281
292 292 291 291 291 291 290 290 290 291 288 287 287 285 284 283 282 281 281 281 280 280
292 292 291 290 289 290 290 291 291 289 288 287 286 285 283 282 281 281 281 281 280 280
292 292 291 291 291 290 292 293 290 288 286 285 285 284 282 282 281 280 280 280 280 280
292 292 291 291 290 290 291 289 287 286 284 284 284 286 286 286 281 281 280 279 279 279
290 289 289 290 289 288 288 288 283 283 283 282 281 286 285 284 281 279 278 278 278 278
289 288 288 288 287 285 285 283 281 281 281 280 282 283 283 282 278 277 277 277 277 276
288 288 288 286 286 284 284 281 281 281 280 278 278 281 281 280 276 276 276 277 277 277
287 286 286 286 285 285 282 282 281 280 279 280 277 279 280 279 274 270 275 276 276 278
285 284 284 284 283 281 281 280 278 277 277 278 278 276 279 279 274 275 275 275 275 277

GFSNIL_sfc_thetae_024.txt.gz
Theta_e
297 296 296 296 295 294 293 292 291 292 293 293 293 292 292 291 290 289 288 287 286 286
296 296 295 295 293 292 292 293 291 292 294 294 293 291 290 289 287 287 286 286 285 282
294 294 293 293 292 292 291 291 294 293 292 291 290 289 287 287 286 286 285 284 282 282
292 292 292 291 291 291 292 292 292 291 290 289 289 288 286 285 285 284 283 282 281 281
291 292 291 290 290 290 290 290 290 289 290 291 289 286 286 284 284 283 281 281 281 281
291 291 290 290 290 290 289 288 289 292 291 288 286 285 284 283 283 281 281 281 280 280
289 289 289 289 289 289 289 289 291 292 290 286 285 285 283 282 281 281 281 281 281 280
290 290 290 289 289 289 289 290 289 287 286 285 284 284 282 282 282 281 280 281 281 281
290 289 289 288 288 288 288 289 289 286 283 282 283 286 286 284 281 280 279 278 278 278
289 288 287 287 287 287 288 289 283 281 281 280 282 285 283 283 280 278 277 276 276 276
287 287 287 286 286 285 283 283 281 280 280 280 281 282 282 281 278 276 277 276 276 276
286 285 285 284 285 284 284 282 281 281 279 278 277 281 280 279 276 276 276 277 277 277
285 284 283 283 283 283 281 282 281 280 279 280 277 279 280 279 274 271 275 276 277 278
284 283 283 281 281 280 280 280 278 277 278 278 278 276 279 280 275 275 276 275 275 276

GFSNIL_sfc_thetae_027.txt.gz
Theta_e
305 305 305 304 304 303 303 302 302 301 301 301 301 300 300 299 298 298 295 294 293 292
304 304 303 303 302 301 301 300 301 300 299 300 300 299 298 297 295 295 294 293 293 292
302 301 300 301 300 301 301 301 300 301 300 298 297 296 295 293 294 292 293 292 291 290
299 299 300 300 300 300 300 299 299 298 297 296 293 294 295 293 292 291 291 291 289 288
298 299 298 297 297 298 297 297 296 296 295 296 296 295 294 291 291 289 289 288 287 287
297 297 296 296 296 296 296 296 296 295 296 294 294 291 290 289 288 287 287 287 287 286
296 296 296 296 295 295 295 296 296 295 293 292 290 289 288 287 287 288 287 286 285 284
296 296 295 295 294 295 295 295 293 290 289 289 289 288 288 288 287 286 284 284 282 282
295 294 294 294 294 294 293 293 293 289 289 287 287 286 285 285 285 283 282 280 281 281
293 293 293 292 292 291 292 292 290 288 287 287 286 283 283 282 283 281 281 280 279 279
292 291 291 291 290 290 292 291 290 287 286 286 283 282 281 281 282 281 280 280 280 279
291 290 290 289 289 290 290 290 288 287 285 283 283 280 280 281 281 280 280 280 280 279
291 290 289 289 288 288 289 288 287 285 284 281 282 279 280 281 282 280 279 280 279 278
290 289 289 288 287 287 287 286 284 283 283 282 281 281 279 280 281 280 279 278 277 278

GFSNIL_sfc_thetae_030.txt.gz
Theta_e
308 310 309 308 307 305 303 304 306 306 305 305 305 304 303 301 300 300 298 295 295 294
310 308 306 303 303 303 303 301 302 303 302 302 302 302 302 300 299 298 296 295 295 293
305 304 303 303 301 300 301 300 300 300 299 300 301 301 300 298 298 296 296 295 293 293
302 302 302 301 300 300 300 299 298 298 299 298 299 299 298 298 297 295 293 293 292 292
301 301 300 299 299 300 299 299 298 298 298 298 297 298 297 295 293 292 292 292 292 291
299 299 298 298 299 299 298 297 298 298 297 295 296 296 294 293 292 292 292 291 291 290
299 299 299 299 298 298 297 297 297 297 295 294 294 293 292 292 291 292 291 291 289 288
299 299 299 298 297 297 297 297 297 295 295 294 293 292 292 292 291 290 289 288 287 286
298 298 297 297 296 296 295 296 295 294 293 292 291 285 284 285 289 288 286 285 285 285
297 296 295 295 294 294 294 295 294 293 293 292 291 283 282 282 287 286 285 285 284 283
295 294 294 294 293 294 294 294 293 293 292 291 289 282 281 281 286 286 285 284 284 284
294 293 293 293 293 293 292 293 292 292 291 290 288 281 281 281 285 285 284 284 284 282
294 293 293 293 292 293 292 291 291 291 291 286 287 281 280 281 285 284 283 284 283 280
293 293 293 293 293 292 291 291 290 288 289 288 287 286 280 280 283 283 282 282 282 282

GFSNIL_sfc_thetae_033.txt.gz
Theta_e
309 308 307 308 307 304 303 304 305 303 303 303 303 303 303 303 302 302 300 299 297 296
308 307 305 305 305 304 303 301 301 302 301 301 300 301 301 301 301 300 300 298 298 296
307 306 304 304 302 302 302 301 301 300 299 300 300 300 300 299 300 299 299 298 296 295
304 304 303 302 302 300 301 300 299 298 299 299 298 299 299 298 298 297 295 295 295 293
303 302 302 301 300 300 300 300 298 298 298 298 298 298 297 296 295 294 293 293 292 291
302 301 301 300 300 300 299 298 298 298 297 297 296 295 295 294 293 293 292 292 291 290
300 301 300 300 300 299 299 297 297 297 297 296 295 294 293 293 292 292 292 291 290 289
300 300 300 299 299 299 298 297 297 297 296 295 294 293 292 292 292 290 289 290 289 288
299 298 298 298 298 297 296 296 296 296 295 294 293 285 285 285 289 289 288 287 287 287
297 297 297 296 296 295 295 296 295 295 294 294 293 285 283 283 287 287 287 287 286 285
296 295 296 295 295 295 295 295 294 294 294 293 291 284 283 282 286 288 287 287 286 285
295 294 294 293 294 295 294 294 293 293 293 292 290 284 283 282 286 286 286 286 286 285
295 294 293 294 294 294 294 293 292 292 292 288 290 284 283 282 285 285 285 286 285 282
294 294 294 294 293 293 292 292 292 290 291 291 289 288 283 282 283 284 283 283 283 284

GFSNIL_sfc_thetae_036.txt.gz
Theta_e
311 308 306 307 305 303 301 301 302 300 300 299 299 298 298 298 298 298 296 294 294 294
308 306 304 305 304 302 301 300 300 299 298 298 298 298 297 296 296 296 295 294 294 294
307 306 305 303 302 300 299 299 298 298 297 297 297 297 296 295 295 294 294 294 292 292
305 304 303 302 301 299 299 298 298 297 296 296 296 296 294 294 294 293 292 292 291 290
304 303 302 302 301 299 298 298 297 296 296 296 296 294 293 292 293 291 290 290 289 289
303 302 300 301 299 299 298 297 296 296 296 295 294 293 293 292 291 291 290 289 289 288
300 301 300 300 298 298 298 296 296 296 296 296 294 293 293 292 291 289 289 289 288 286
301 300 300 299 298 298 297 296 296 296 295 294 293 292 290 289 287 286 286 286 286 285
300 298 298 297 297 297 296 296 295 294 294 292 292 287 286 286 284 285 285 283 284 284
298 297 297 296 296 295 294 294 293 293 293 291 290 287 285 283 283 283 283 283 283 283
297 296 295 295 294 294 294 293 292 291 292 292 291 287 285 284 281 282 283 283 283 281
295 294 294 294 293 293 293 292 291 291 291 291 286 286 285 282 281 282 282 284 283 283
294 293 292 293 293 293 292 292 291 290 290 288 287 285 284 282 281 280 281 282 282 281
294 293 293 293 292 291 290 290 288 287 287 288 287 284 285 284 281 280 280 280 279 280

GFSNIL_sfc_thetae_039.txt.gz
Theta_e
303 301 301 300 298 298 299 299 298 297 296 295 295 294 294 293 293 293 292 293 295 293
302 301 300 299 299 300 298 299 297 296 296 295 294 295 293 292 292 292 292 291 293 293
301 300 301 301 299 299 298 298 296 296 294 293 294 293 293 291 292 292 291 291 289 289
300 302 300 300 299 298 298 297 295 295 293 293 293 293 291 291 292 290 289 288 288 288
300 301 300 300 299 298 297 297 296 294 293 294 293 291 291 291 290 288 288 287 287 287
301 300 299 298 299 297 296 294 294 294 293 293 293 291 291 290 289 289 288 288 287 286
299 299 299 298 297 295 295 294 294 293 294 294 293 292 292 291 288 286 285 285 284 284
299 299 298 298 297 296 295 294 294 293 293 293 292 291 290 289 286 285 285 285 285 283
299 299 296 295 295 295 294 293 293 293 293 292 291 288 289 286 283 284 283 281 282 282
297 295 295 295 293 293 292 292 292 292 292 291 288 288 288 286 283 282 282 281 281 281
295 294 293 293 292 292 292 291 291 290 290 290 289 288 287 285 281 281 281 281 281 280
293 292 292 292 292 291 291 290 290 290 289 288 287 287 286 283 281 281 281 282 282 281
293 292 292 292 291 291 290 290 290 289 288 288 285 287 286 284 279 280 280 280 280 282
293 292 292 291 290 289 288 287 286 285 285 286 285 284 286 285 280 280 279 279 278 278

GFSNIL_sfc_thetae_042.txt.gz
Theta_e
308 305 302 302 301 300 299 298 298 297 297 295 295 294 292 293 292 291 291 290 290 291
304 302 301 300 302 300 299 298 297 297 296 295 295 294 293 292 290 290 290 290 289 290
303 303 303 303 301 299 298 298 297 295 295 294 294 293 291 290 291 289 288 288 287 288
303 302 303 302 300 299 297 297 297 296 293 293 292 292 290 290 291 289 288 288 288 288
301 301 301 300 298 299 297 298 296 293 293 293 293 291 290 289 289 288 287 287 287 286
300 300 299 299 298 296 295 294 293 293 293 293 292 291 290 289 289 288 288 286 284 285
300 299 298 297 295 295 294 292 292 293 293 293 292 291 291 290 289 288 286 285 284 284
300 297 297 296 295 295 293 293 292 292 293 293 292 292 291 290 287 285 284 284 284 284
300 297 296 294 295 295 294 293 292 292 293 292 291 290 290 288 285 285 283 282 282 282
295 294 294 294 293 292 291 291 291 291 291 291 291 289 290 288 284 283 282 281 281 281
292 292 293 293 292 292 292 291 290 290 290 289 290 289 289 287 282 281 281 282 282 280
292 292 293 293 293 292 290 289 288 289 289 288 287 289 288 285 281 281 281 282 282 281
294 294 293 291 289 289 288 288 288 287 287 288 286 288 288 285 281 280 280 280 281 283
292 291 290 289 288 287 286 285 284 284 284 284 284 284 288 287 281 280 280 280 279 279

GFSNIL_sfc_thetae_045.txt.gz
Theta_e
310 309 308 307 305 301 299 297 296 297 297 297 296 295 294 294 292 292 290 289 290 289
308 305 303 303 303 301 299 298 298 297 296 296 295 296 294 291 291 289 289 288 289 289
306 304 303 303 301 299 299 298 297 296 296 296 296 294 292 289 289 288 288 288 288 288
303 303 303 301 300 299 298 296 297 297 296 295 293 292 290 289 290 290 288 288 288 287
302 302 300 299 298 297 297 299 298 297 294 293 292 291 290 290 290 288 286 287 286 286
302 301 300 299 298 298 296 294 293 292 293 293 292 291 290 289 288 287 287 287 286 285
299 300 300 298 296 295 295 293 293 293 293 293 293 291 290 289 287 287 287 286 284 284
298 298 297 296 293 294 294 293 293 293 293 293 292 292 290 289 287 286 284 284 284 283
299 297 295 295 294 293 293 293 293 293 292 291 291 290 291 289 286 285 284 283 282 283
295 293 293 294 293 293 293 294 293 291 291 290 289 290 291 290 285 283 282 281 281 281
292 292 293 293 293 293 293 291 288 288 287 287 288 289 290 289 283 281 281 281 282 280
294 293 294 293 293 292 290 287 286 287 286 286 286 288 289 287 281 280 281 282 281 282
294 294 293 292 290 288 287 286 286 285 285 286 284 287 288 287 281 280 281 280 281 285
293 291 290 287 286 285 284 283 282 283 283 283 283 284 288 288 282 281 281 281 281 281

GFSNIL_sfc_thetae_051.txt.gz
Theta_e
322 320 319 316 314 311 310 308 306 305 300 299 300 302 299 299 298 298 299 300 299 298
323 320 320 317 315 312 307 304 303 302 301 301 300 299 298 297 298 298 298 299 299 297
322 321 320 316 312 307 306 302 302 302 302 299 299 299 297 297 297 297 299 297 297 297
319 318 316 312 309 306 303 301 301 301 299 297 298 297 296 295 296 297 297 296 296 296
315 312 310 309 306 304 302 302 301 298 297 298 297 296 294 296 297 296 296 296 295 295
310 310 308 305 303 304 302 299 298 298 297 297 297 296 297 297 297 297 296 296 295 294
307 306 304 302 301 301 301 300 300 300 297 297 296 297 297 298 297 296 295 296 295 295
304 302 300 300 297 298 297 299 296 297 296 297 296 295 296 297 296 296 295 295 294 294
298 297 295 295 296 297 295 298 297 296 297 295 295 293 292 292 295 295 294 294 295 294
295 294 295 296 296 298 297 297 296 295 295 296 297 291 290 290 293 294 294 294 293 293
296 295 297 297 296 295 295 295 295 296 297 295 293 289 289 289 293 293 293 293 293 292
296 296 295 294 295 295 296 296 295 294 293 292 292 289 288 288 292 292 292 292 292 291
297 295 293 293 294 294 293 291 291 290 291 290 290 289 288 288 291 290 290 291 291 287
291 291 291 291 291 290 290 289 289 288 290 290 290 290 288 288 289 290 289 289 289 290

GFSNIL_sfc_thetae_054.txt.gz
Theta_e
330 329 328 327 325 324 318 312 316 313 314 308 305 303 307 305 300 301 298 302 301 300
328 327 327 326 325 322 316 312 308 309 305 306 307 306 300 300 298 299 301 301 303 301
327 327 326 325 322 317 311 306 305 303 303 306 302 300 303 301 298 298 299 302 302 301
329 329 325 322 320 314 309 305 304 304 304 300 299 300 298 297 298 296 301 303 301 299
325 321 319 315 313 309 304 304 306 304 300 299 300 298 298 296 297 300 301 300 300 299
314 312 311 308 305 304 303 303 303 300 299 299 297 297 297 298 300 301 301 300 299 299
310 308 307 306 304 305 303 302 300 300 300 298 298 298 298 299 300 301 301 300 299 299
307 306 305 306 307 304 302 301 302 300 299 297 297 298 298 297 298 299 299 299 299 299
303 302 302 303 303 300 300 300 298 296 296 297 297 293 293 295 299 298 298 297 298 298
301 299 301 300 300 299 299 298 297 297 297 297 297 294 293 291 296 296 297 297 297 296
300 301 302 301 299 299 298 298 298 298 300 300 299 291 290 289 295 295 296 296 296 295
301 300 299 300 300 300 300 300 299 297 296 296 296 291 289 289 293 293 293 294 295 294
301 298 297 298 297 297 298 295 295 294 294 292 294 291 289 290 292 292 293 293 293 290
294 295 295 295 295 295 295 294 294 293 293 293 292 291 288 288 288 288 288 288 289 292

GFSNIL_sfc_thetae_060.txt.gz
Theta_e
328 327 327 326 326 325 324 323 323 322 317 314 312 309 306 305 306 304 301 297 299 299
327 327 328 327 328 326 325 322 320 317 313 309 307 306 307 305 300 298 298 299 299 299
328 328 328 329 327 324 322 319 318 314 309 306 306 306 302 299 299 298 298 298 298 298
329 330 326 325 323 322 317 315 313 309 305 305 303 302 300 299 297 296 297 297 297 297
326 325 322 320 319 316 312 310 308 305 304 303 300 300 298 297 296 296 296 296 296 298
318 314 311 309 307 306 306 305 305 304 301 300 300 299 298 297 297 296 296 297 298 300
311 308 306 306 305 305 304 302 301 301 300 300 299 298 298 297 297 297 298 299 298 298
307 308 306 304 304 303 302 301 300 299 299 298 298 297 297 298 298 297 297 298 299 298
308 307 306 304 302 301 301 301 300 298 297 297 297 294 294 295 296 297 297 295 293 294
309 306 305 305 303 302 300 300 298 296 297 297 297 293 293 292 295 293 291 291 291 292
305 304 303 302 301 301 301 299 299 298 298 298 298 292 290 289 289 290 290 290 290 289
304 302 302 301 301 300 300 299 299 299 297 293 288 288 287 288 287 287 286 288 287 287
303 303 300 300 300 300 299 296 294 294 294 291 286 287 286 286 283 282 281 282 283 285
302 301 300 298 296 295 293 294 290 288 288 289 288 284 284 284 280 279 279 279 280 281

GFSNIL_sfc_thetae_066.txt.gz
Theta_e
317 317 317 316 317 316 317 320 322 320 319 318 315 312 310 310 310 307 305 304 303 301
317 317 318 319 316 317 319 318 318 319 318 316 314 309 308 307 305 305 303 301 300 299
317 318 320 317 318 319 320 320 318 317 317 313 310 308 307 305 303 301 300 300 299 299
319 321 320 320 320 319 319 321 319 315 311 309 308 306 304 302 300 299 299 299 299 298
320 321 322 322 320 319 318 314 314 312 309 307 305 303 301 299 299 298 298 297 297 298
321 320 320 319 318 317 313 310 308 308 305 303 302 301 300 299 298 298 298 297 297 297
322 322 320 314 311 309 309 306 305 305 303 301 300 299 299 298 298 297 297 297 297 298
310 311 310 308 307 306 305 304 303 301 300 299 299 299 298 297 296 296 297 297 297 296
307 306 306 305 303 302 301 301 300 299 298 298 298 293 294 295 297 297 296 293 289 288
305 303 303 302 302 300 299 299 297 297 297 296 295 293 294 293 294 291 287 284 283 285
303 303 302 301 299 298 297 296 296 294 294 294 295 292 290 288 285 283 283 282 281 281
303 301 300 299 297 296 295 293 293 292 289 287 290 289 287 285 282 281 280 281 281 281
301 299 298 298 296 295 295 294 293 288 287 286 285 287 286 282 279 277 278 279 280 281
299 298 298 297 296 293 290 289 285 283 283 283 283 283 284 282 278 278 278 278 277 277

GFSNIL_sfc_thetae_072.txt.gz
Theta_e
308 308 308 308 309 309 310 309 312 313 315 314 315 313 313 311 312 312 312 309 309 308
309 308 308 309 310 311 311 312 311 312 314 315 316 315 314 314 312 310 309 309 307 307
310 309 309 310 311 313 314 312 313 313 313 314 314 315 316 317 314 311 307 306 305 303
310 311 312 312 313 314 314 314 316 316 316 317 317 315 312 312 308 308 304 303 303 301
311 312 312 313 313 315 315 316 317 318 317 317 315 310 310 306 306 306 303 302 301 300
311 311 311 311 313 315 316 317 318 318 316 315 311 309 308 307 305 304 305 301 300 299
311 312 311 311 313 315 317 317 316 314 313 310 307 306 305 304 303 301 301 300 299 299
311 312 310 312 315 316 317 318 316 312 310 309 306 305 303 302 300 299 298 299 298 296
313 313 313 314 316 318 316 314 310 307 305 302 301 295 296 298 299 298 297 291 289 289
313 313 315 315 312 310 309 306 304 302 301 300 299 294 294 294 298 296 290 287 285 285
314 313 308 306 306 306 304 303 302 300 300 299 295 292 292 291 290 287 286 286 284 283
311 307 305 303 302 301 301 300 298 298 298 295 292 290 288 288 285 283 282 282 282 282
306 304 303 301 299 300 299 296 294 293 294 291 288 288 287 286 283 281 280 281 281 281
304 303 302 299 298 296 293 290 287 286 287 287 287 286 286 285 282 281 279 278 277 279

GFSNIL_sfc_thetae_078.txt.gz
Theta_e
321 320 322 324 323 320 318 318 318 319 320 323 325 326 326 328 327 328 327 326 325 324
324 323 323 323 325 323 322 322 321 325 324 326 326 325 326 325 325 326 327 327 327 326
323 323 324 325 324 325 325 324 325 325 326 325 324 324 324 324 325 324 327 326 323 323
323 324 324 324 324 324 325 324 323 323 323 322 322 323 324 324 324 323 323 323 322 318
323 322 324 325 325 326 325 325 323 323 321 322 322 323 323 323 322 319 319 319 315 315
322 322 321 321 323 323 322 323 322 323 323 323 323 323 323 322 320 319 319 318 313 311
322 323 322 322 321 322 321 320 320 323 322 323 322 321 322 322 322 322 320 317 311 311
321 322 322 321 321 322 322 320 321 321 322 323 322 321 319 319 319 318 316 312 310 309
322 321 321 321 322 322 322 321 322 321 322 323 320 306 301 312 318 315 311 305 301 301
322 321 321 321 320 320 320 321 320 322 321 321 322 300 298 298 318 312 307 300 294 293
321 321 321 321 320 320 320 320 321 321 321 321 320 297 297 295 307 301 297 294 293 289
321 320 320 319 320 320 320 320 320 319 317 314 304 293 292 295 293 290 288 289 288 287
321 320 320 320 319 316 318 313 303 299 300 296 294 292 292 293 288 285 284 285 284 285
321 319 318 316 311 305 299 295 291 289 290 290 290 289 290 289 287 285 283 282 282 283

GFSNIL_sfc_thetae_081.txt.gz
Theta_e
324 323 322 319 316 316 315 314 315 316 316 318 320 322 327 326 326 329 327 326 325 323
325 324 323 323 323 319 319 317 318 318 318 319 322 322 326 325 324 326 323 325 327 325
324 325 325 326 325 324 325 325 323 323 321 320 320 323 324 324 325 325 325 327 326 326
325 325 326 327 328 327 327 325 323 323 323 322 323 324 324 324 325 324 325 325 325 324
328 327 326 326 328 329 327 326 324 325 323 324 324 325 324 324 323 323 323 324 324 323
327 326 326 327 327 327 327 326 326 324 324 323 324 325 325 325 324 324 324 325 324 320
327 326 326 327 327 327 326 325 325 324 324 324 324 324 324 323 323 323 323 325 323 319
327 327 325 326 326 327 327 326 326 325 325 325 324 323 324 324 323 323 322 322 320 318
326 325 325 326 326 325 325 325 325 324 324 324 322 308 303 312 323 321 321 317 316 313
326 325 325 325 324 324 324 325 323 323 323 323 324 303 300 299 317 318 320 315 314 305
326 326 325 325 323 324 325 324 324 324 324 324 323 301 300 297 313 315 316 313 307 300
326 325 325 325 324 325 324 323 323 323 323 322 323 295 296 299 306 297 292 292 292 292
326 325 324 325 325 326 324 322 320 316 309 298 309 295 294 296 293 288 286 287 287 287
324 323 324 324 325 323 315 304 297 292 291 290 292 292 291 291 290 286 284 283 283 284

GFSNIL_sfc_thetae_084.txt.gz
Theta_e
318 317 315 315 314 312 312 312 315 317 317 317 319 319 320 319 319 319 319 318 318 318
321 318 317 316 315 314 314 314 314 316 317 316 318 318 318 319 317 319 320 318 318 318
321 321 320 319 316 315 315 315 315 315 315 316 316 317 317 318 319 318 319 320 318 318
321 322 322 321 320 317 316 316 315 314 315 315 315 316 316 316 316 318 317 318 318 318
321 321 321 321 322 320 317 317 316 316 315 316 316 316 315 315 315 315 316 317 318 318
322 321 321 321 323 322 321 320 319 318 318 317 317 316 316 316 316 316 316 317 317 317
322 323 322 322 322 323 324 322 322 321 320 319 319 318 318 318 318 318 318 318 318 318
323 323 324 324 323 322 323 323 323 321 320 320 319 319 318 318 318 317 318 319 318 317
323 323 323 322 322 322 322 322 322 321 320 319 319 308 303 311 318 317 317 316 316 317
322 322 323 322 321 321 321 322 320 320 320 319 320 304 302 300 317 317 317 316 315 311
324 322 322 322 321 320 320 320 320 320 320 320 320 303 300 298 311 315 315 311 309 309
324 323 322 321 320 321 320 320 319 319 318 318 318 300 298 298 309 312 299 294 294 296
324 323 322 322 321 321 321 320 320 317 308 297 311 293 293 298 299 290 287 286 286 287
324 323 323 322 322 321 320 310 298 291 291 294 295 294 292 292 290 287 285 284 284 284

GFSNIL_sfc_thetae_087.txt.gz
Theta_e
315 313 312 310 309 310 311 312 312 315 317 316 317 318 318 318 317 318 317 316 316 316
316 313 313 311 311 311 311 313 313 314 317 316 317 317 318 316 316 317 316 316 316 316
317 315 314 313 312 311 311 313 313 313 315 316 317 317 317 317 317 316 316 317 316 316
320 317 315 314 313 313 312 312 312 312 314 315 315 316 315 315 316 316 316 316 316 315
320 320 318 317 315 315 313 313 312 312 313 314 315 315 314 314 314 314 315 316 316 316
318 319 320 318 319 318 315 313 313 312 312 312 312 313 313 313 313 313 313 314 314 315
316 317 318 320 320 320 319 316 313 313 313 312 312 312 313 313 313 313 313 313 313 315
318 318 318 318 319 320 320 319 316 314 313 313 312 312 312 313 313 313 312 313 314 314
320 319 319 319 319 319 319 320 319 317 316 314 314 306 302 309 314 313 313 313 314 315
319 320 320 320 320 319 318 319 320 319 319 318 318 303 301 300 315 315 315 314 314 314
318 319 320 320 319 319 319 319 318 318 319 319 319 302 300 297 311 315 315 314 314 313
320 319 318 318 319 319 318 318 318 319 319 318 318 301 300 299 310 312 313 301 296 305
306 317 320 319 318 319 319 318 318 318 318 311 318 299 298 299 312 308 290 287 287 288
299 302 305 312 318 317 317 316 310 298 291 291 290 292 293 294 298 298 287 285 284 286

GFSNIL_sfc_thetae_090.txt.gz
Theta_e
315 311 310 311 311 312 312 313 313 312 311 312 315 316 315 314 315 313 315 315 315 315
315 312 311 311 312 312 313 313 313 312 312 312 314 316 316 314 312 313 313 313 314 315
316 314 313 312 308 309 311 313 313 313 315 315 314 315 315 316 315 314 314 316 314 315
317 315 314 311 309 309 309 310 311 313 314 316 315 315 315 315 315 314 314 314 314 315
318 316 314 312 311 311 309 310 311 311 312 313 314 316 314 313 314 313 313 313 313 314
318 317 315 314 313 312 311 310 310 311 310 311 312 313 313 314 313 313 315 315 314 314
316 317 318 317 316 314 313 311 311 311 311 311 311 312 312 312 312 312 312 313 314 315
316 317 317 318 318 317 315 313 313 311 311 311 311 311 311 312 311 311 311 312 312 312
316 316 316 316 318 318 317 317 315 313 311 310 311 303 300 306 310 310 310 309 310 311
318 317 316 317 317 317 317 318 317 315 313 312 312 301 299 298 309 309 309 310 310 310
317 318 319 317 317 317 317 316 317 317 317 316 315 301 299 296 307 309 309 310 311 311
306 309 314 318 318 318 318 317 317 317 317 318 318 301 300 299 308 310 311 312 313 313
299 302 303 305 311 319 319 318 318 318 318 312 318 304 299 300 314 311 310 311 295 290
293 295 296 298 299 300 305 317 316 311 293 290 288 291 291 296 308 310 306 298 285 286

GFSNIL_sfc_thetae_093.txt.gz
Theta_e
314 311 310 311 313 313 313 314 313 315 317 316 317 316 315 314 314 314 312 311 312 313
315 313 309 310 313 312 313 313 312 313 313 315 315 316 316 314 313 313 313 313 312 311
313 312 310 309 310 309 310 311 311 311 311 311 313 315 315 315 314 313 313 314 314 314
313 312 311 310 309 309 310 311 311 311 311 311 311 312 313 314 314 313 312 313 311 313
315 313 312 310 309 308 309 310 310 311 311 312 312 312 312 312 313 312 311 311 311 312
314 313 313 312 310 308 308 308 310 310 310 311 312 313 312 312 312 312 313 313 311 312
314 314 313 313 312 310 309 308 308 309 310 310 311 312 313 313 312 311 312 313 313 312
315 315 315 313 313 312 311 310 309 309 309 309 310 310 311 311 310 310 310 311 311 312
315 315 314 315 314 314 312 312 311 310 309 308 309 302 299 305 310 310 309 308 310 310
316 315 316 316 316 317 316 315 313 312 311 310 310 300 299 297 308 309 309 309 309 309
306 309 315 317 316 316 316 317 316 316 315 313 312 299 298 296 305 308 309 308 308 308
299 302 303 306 309 317 316 316 317 318 317 316 315 301 298 297 306 307 308 309 309 308
293 296 295 297 299 302 305 314 317 316 316 305 304 289 290 296 310 307 306 307 307 298
289 290 290 291 293 295 298 298 294 290 287 287 285 287 288 289 292 304 304 302 297 286

GFSNIL_sfc_thetae_096.txt.gz
Theta_e
310 310 312 309 313 313 314 315 317 318 317 316 315 316 315 314 314 314 313 313 312 312
311 309 309 309 310 314 314 315 314 316 315 313 314 315 315 314 313 314 314 313 313 312
311 311 309 309 309 310 313 314 313 313 313 314 313 315 315 314 314 312 313 313 312 312
310 310 309 308 308 308 309 310 312 313 312 313 314 315 315 314 314 312 312 313 313 312
311 310 308 307 307 308 308 309 309 310 311 311 312 313 314 314 315 314 312 311 312 312
314 310 309 308 307 307 307 308 308 309 310 311 312 311 311 311 311 311 313 314 312 311
314 314 310 309 308 307 307 307 307 308 309 310 310 312 311 310 310 311 311 312 312 312
315 315 312 310 309 309 308 307 307 308 308 309 310 310 311 311 311 310 310 310 311 312
315 316 315 314 311 310 309 308 307 306 307 307 308 301 299 306 310 310 310 309 310 310
312 315 315 315 314 312 311 310 309 308 308 307 308 299 298 297 309 309 309 309 309 309
301 303 305 309 313 315 316 314 313 312 312 311 311 299 297 296 305 308 308 308 308 308
295 296 296 297 298 301 302 311 315 316 315 314 310 289 292 295 305 307 307 309 309 309
290 291 290 292 292 295 298 299 300 293 288 288 289 288 289 291 300 305 305 306 305 291
287 288 287 289 290 291 292 291 288 286 285 285 285 286 288 289 293 292 288 286 285 285

GFSNIL_sfc_thetae_099.txt.gz
Theta_e
320 319 319 318 318 318 316 317 321 324 321 320 319 319 317 316 315 315 316 315 315 314
319 319 318 318 318 318 318 318 319 319 319 318 317 317 316 315 314 315 315 314 314 315
319 319 319 319 318 318 317 317 317 318 316 315 316 316 316 314 314 313 314 315 315 315
318 318 317 318 318 318 317 317 316 316 317 315 315 316 315 314 315 314 313 316 318 316
318 317 316 316 316 318 318 315 317 316 315 315 315 317 317 314 314 314 313 313 313 312
317 316 316 315 315 316 317 318 317 317 314 313 314 315 316 315 315 314 313 313 312 312
317 316 316 316 315 314 315 316 316 317 317 318 316 314 314 314 314 315 316 318 317 314
317 317 316 316 316 315 314 315 316 316 316 317 317 316 316 314 313 313 314 318 318 319
316 316 315 315 317 315 315 314 314 314 314 315 314 302 300 310 316 315 315 315 316 317
306 308 310 315 315 314 315 315 314 314 314 314 315 298 298 298 315 316 316 316 316 315
298 299 300 302 302 303 307 314 313 313 313 313 301 291 294 295 307 310 311 312 313 314
293 293 294 295 295 297 301 300 294 293 296 299 290 289 289 293 303 306 307 309 308 299
291 290 291 292 293 295 295 292 291 288 287 287 287 288 289 291 298 301 300 288 287 286
288 288 289 290 290 292 290 289 287 285 284 284 285 286 287 289 293 291 286 284 283 284